This is the latest recevied weather packets stored in our database for station/object DO6MJ-1. If no packets are shown the sender has not sent any weather packets the latest 10 day(s).
| Time | Temp. | Humidity | Pressure | Rain* | Wind** | Luminosity | Snow |
|---|---|---|---|---|---|---|---|
| 1787762682 | 21.11° C | 59% | 1011.5 hPa | 0 mm | - | - | - |
| 1787761481 | 21.67° C | 58% | 1011.5 hPa | 0 mm | - | - | - |
| 1787760281 | 22.22° C | 56% | 1011.3 hPa | 0 mm | - | - | - |
| 1787759081 | 22.78° C | 55% | 1011.3 hPa | 0 mm | - | - | - |
| 1787757881 | 23.33° C | 54% | 1011.4 hPa | 0 mm | - | - | - |
| 1787756680 | 23.89° C | 56% | 1011.5 hPa | 0 mm | - | - | - |
| 1787755480 | 24.44° C | 56% | 1011.5 hPa | 0 mm | - | - | - |
| 1787754280 | 23.33° C | 57% | 1011.6 hPa | 0 mm | - | - | - |
| 1787753080 | 23.89° C | 57% | 1011.7 hPa | 0 mm | - | - | - |
| 1787751879 | 23.33° C | 57% | 1011.8 hPa | 0 mm | - | - | - |
| 1787750679 | 23.89° C | 57% | 1012 hPa | 0 mm | - | - | - |
| 1787749479 | 23.89° C | 57% | 1012 hPa | 0 mm | - | - | - |
| 1787748278 | 23.89° C | 56% | 1012.1 hPa | 0 mm | - | - | - |
| 1787747078 | 23.33° C | 57% | 1012.1 hPa | 0 mm | - | - | - |
| 1787745878 | 23.33° C | 57% | 1012 hPa | 0 mm | - | - | - |
| 1787744678 | 23.33° C | 57% | 1012.1 hPa | 0 mm | - | - | - |
| 1787743477 | 22.78° C | 58% | 1012.1 hPa | 0 mm | - | - | - |
| 1787742277 | 22.22° C | 58% | 1012 hPa | 0 mm | - | - | - |
| 1787741077 | 22.22° C | 58% | 1012.1 hPa | 0 mm | - | - | - |
| 1787739876 | 22.78° C | 58% | 1012 hPa | 0 mm | - | - | - |
| 1787738676 | 22.78° C | 57% | 1012.1 hPa | 0 mm | - | - | - |
| 1787737476 | 22.78° C | 58% | 1012.3 hPa | 0 mm | - | - | - |
| 1787736276 | 22.22° C | 59% | 1012.1 hPa | 0 mm | - | - | - |
| 1787735075 | 21.67° C | 60% | 1012 hPa | 0 mm | - | - | - |
| 1787733875 | 21.11° C | 62% | 1012.1 hPa | 0 mm | - | - | - |
* Rain latest hour (hover to see other rain measurements)
** Current wind speed in m/s (hover to see current wind gust speed)